Flag for U.S.A. Weather past 2 weeks in San Bernardino, California, U.S.A.

Now
66 °F

Clear.


Feels Like: 66 °F
Forecast: 61 / 93 °F
Wind: No wind

Location: Riverside Municipal Airport

Current Time: Jul 22, 2014 at 4:36:12 AM

Latest Report: Jul 22, 2014 at 3:53 AM


Visibility: 10 mi

Pressure: 29.98 "Hg

Humidity: 78%

Dew point: 59 °F

Location of San BernardinoLocation

Historic Weather in San Bernardino — Graph

°F

San Bernardino temperature yesterday

Maximum temperature yesterday: 88 °F (at 2:53 PM)
Minimum temperature yesterday: 63 °F (at 5:53 AM)
Average temperature yesterday: 74 °F

Past Weeks' High & Low Weather Summary

 TemperatureHumidityPressure
High98 °F (Jul 7, 2:53 PM)91% (Jul 9, 5:53 AM)30.02 "Hg (Jul 9, 5:53 AM)
Low61 °F (Jul 18, 5:53 AM)17% (Jul 7, 12:53 PM)29.78 "Hg (Jul 7, 4:53 PM)
Average75 °F60%29.92 "Hg
* Reported Jul 7 2:53 AM — Jul 22 2:53 AM, San Bernardino, Weather by CustomWeather, © 2014

Note: Actual official high and low records may vary slightly from our data, if they occured in-between our weather recording intervals... More about our weather records

Advertising

San Bernardino weather history for previous 24 hours

 ConditionsComfort  
Time TempWeatherWind HumidityBarometerVisibility
2:53 AM
Jul 22
67 °FClear.No wind76%29.98 "Hg10 mi
1:53 AM69 °FClear.No wind70%29.98 "Hg10 mi
12:53 AM69 °FClear.3 mph70%29.98 "Hg10 mi
11:53 PM
Jul 21
70 °FClear.3 mph68%29.98 "Hg10 mi
10:53 PM71 °FClear.5 mph66%29.98 "Hg10 mi
9:53 PM73 °FClear.5 mph62%29.96 "Hg10 mi
8:53 PM75 °FSunny.7 mph55%29.95 "Hg10 mi
7:53 PM78 °FSunny.7 mph46%29.93 "Hg10 mi
6:53 PM82 °FSunny.10 mph44%29.93 "Hg10 mi
5:53 PM85 °FSunny.10 mph40%29.93 "Hg10 mi
4:53 PM86 °FSunny.13 mph39%29.93 "Hg10 mi
3:53 PM87 °FSunny.12 mph37%29.94 "Hg10 mi
2:53 PM88 °FSunny.12 mph36%29.95 "Hg10 mi
1:53 PM86 °FSunny.7 mph39%29.97 "Hg10 mi
12:53 PM83 °FSunny.3 mph44%29.98 "Hg10 mi
11:53 AM80 °FPartly sunny.6 mph51%30.00 "Hg10 mi
10:53 AM78 °FScattered clouds.No wind54%30.02 "Hg10 mi
9:53 AM73 °FSunny.5 mph64%30.02 "Hg10 mi
8:53 AM70 °FSunny.No wind71%30.02 "Hg10 mi
7:53 AM67 °FSunny.3 mph76%30.01 "Hg10 mi
6:53 AM64 °FSunny.No wind84%30.00 "Hg10 mi
5:53 AM63 °FClear.No wind87%29.98 "Hg10 mi
4:53 AM64 °FClear.No wind84%29.97 "Hg10 mi
Weather by CustomWeather, © 2014

See weather overviewHow to use our weather pages